Regional Weather Roundup
Issued by NWS

Home | Current Version | Previous Version | Text Only | Print | Product List | Glossary Off
Versions: 1 2 3 4 5 6 7 8 9 10 11 12 13 14 15 16 17 18 19 20 21 22 23 24 25 26 27 28 29 30 31 32 33 34 35 36 37 38 39 40 41 42 43 44 45 46 47 48 49 50

000
ASUS45 KBOU 012007
RWRCO

WEATHER ROUNDUP FOR COLORADO
NATIONAL WEATHER SERVICE DENVER/BOULDER CO
200 PM MDT FRI AUG 01 2014

NOTE: "FAIR" INDICATES FEW OR NO CLOUDS BELOW 12000 FEET WITH NO
SIGNIFICANT WEATHER AND/OR OBSTRUCTIONS TO VISIBILITY.

COZ001>005-013-030-031-012100-
...NORTHWEST COLORADO...

CITY           SKY/WX    TMP DP  RH WIND       PRES   REMARKS
CRAIG          SUNNY     73  39  29 NE7       30.26F
HAYDEN         MOSUNNY   75  37  25 NE7       30.28F
MEEKER         MOSUNNY   80  42  25 SE10      30.27F
MOUNT WERNER   NOT AVBL
STEAMBOAT SPGS MOSUNNY   73  50  43 SE8       30.30F
WALDEN         SUNNY     70  32  24 S6        30.39F
$$

COZ006>008-011-012100-
...WEST CENTRAL VALLEYS...

CITY           SKY/WX    TMP DP  RH WIND       PRES   REMARKS
GRAND JUNCTION MOSUNNY   84  45  25 NW9       30.15F
MONTROSE       MOSUNNY   84  45  25 N12       30.22F
EAGLE          PTSUNNY   73  45  35 NW3       30.32F
RIFLE          MOSUNNY   78  49  35 VRB5      30.23F
DELTA          MOSUNNY   87  47  24 N14G25    30.19S
NUCLA          MOSUNNY   82  46  28 W8        30.25F
$$

COZ017>023-064>068-012100-
...SOUTHWEST COLORADO...

CITY           SKY/WX    TMP DP  RH WIND       PRES   REMARKS
DURANGO        CLOUDY    78  49  35 MISG      30.27F
CORTEZ         SUNNY     85  51  31 S10       30.22F
PAGOSA SPRINGS MOSUNNY   72  46  39 S6        30.36F
TELLURIDE      PTSUNNY   64  46  52 W10       30.44S
WOLF CREEK PAS NOT AVBL
$$

COZ009-010-012-014-032>034-037-058>063-012100-
...CENTRAL COLORADO...

CITY           SKY/WX    TMP DP  RH WIND       PRES   REMARKS
ASPEN          LGT RAIN  57  50  77 CALM      30.43R
BUENA VISTA    CLOUDY    65  48  55 CALM      30.40F
COPPER MTN     PTSUNNY   50  41  71 CALM      30.67S
BERTHOUD PASS  FOG       37  37 100 SE17      30.71S VSB<1/4
COTTONWOOD PAS CLOUDY    59  52  77 CALM      30.53S
GUNNISON       PTSUNNY   64  48  55 NW12G18   30.40S
KREMMLING      PTSUNNY   72  41  33 SW10      30.37F
LEADVILLE        N/A     55  43  63 NW5       30.50
MONARCH PASS   FOG       50  46  87 NE7       30.74F VSB 3/4
SALIDA         NOT AVBL
SUNLIGHT       CLOUDY    54  46  76 CALM      30.60F
WILKERSON PASS LGT RAIN  43  41  93 SE7       30.65F VSB 3/4
$$

COZ069>075-012100-
...SAN LUIS VALLEY/SANGRE DE CRISTO MOUNTAINS...

CITY           SKY/WX    TMP DP  RH WIND       PRES   REMARKS
ALAMOSA        PTSUNNY   68  48  48 CALM      30.35F
LA VETA PASS   NOT AVBL
SAGUACHE       MOSUNNY   68  50  52 CALM      30.38F
$$

COZ035-036-038>040-012100-
...NORTHERN COLORADO FRONT RANGE...

CITY           SKY/WX    TMP DP  RH WIND       PRES   REMARKS
DENVER INTL AP PTSUNNY   78  43  28 SE13      30.27F
DMNS CITY PARK   N/A     77  41  27 E6G13     30.26S
AURORA         NOT AVBL
FRONT RANGE AP PTSUNNY   79  41  25 SE12      30.28F
ERIE MUNI ARPT PTSUNNY   78  43  29 E6        30.25F
BOULDER MUN AP PTSUNNY   77  43  29 SE5       30.26F
CENTENNIAL     PTSUNNY   74  37  26 VRB7      30.29F
BROOMFIELD     CLOUDY    77  46  33 SE6       30.29F
FORT COLLINS   PTSUNNY   79  43  27 SE8       30.25F
LONGMONT       PTSUNNY   84  45  25 SE9       30.26F
$$

COZ041-046-047-076>085-087-088-012100-
...PIKES PEAK/PALMER DIVIDE AND SOUTHERN FOOTHILLS...

CITY           SKY/WX    TMP DP  RH WIND       PRES   REMARKS
COLO. SPRINGS  CLOUDY    69  50  50 S7        30.34S
A. F. ACADEMY  CLOUDY    69  49  48 S9        30.35S
ELLICOTT       CLOUDY    71  48  43 VRB7      30.32F
FALCON         CLOUDY    70  48  44 S5        30.38F
FORT CARSON    PTSUNNY   69  54  58 S3        30.32S
LIMON          MOSUNNY   78  40  25 E16       30.28F
MONUMENT HILL  PTSUNNY   68  39  34 S5        30.38S
TRINIDAD       MOSUNNY   74  53  48 CALM      30.27F
$$

COZ042>045-048>051-090-091-012100-
...NORTHEAST COLORADO...

CITY           SKY/WX    TMP DP  RH WIND       PRES   REMARKS
GREELEY ARPT   PTSUNNY   79  52  38 CALM      30.24F
AKRON          CLOUDY    84  44  24 VRB5      30.23F
BURLINGTON     PTSUNNY   84  46  26 SE8       30.20F
WRAY             N/A     89  46  22 W5        30.17F
STERLING       SUNNY     86  50  28 S3        30.19S
HOLYOKE        SUNNY     88  43  20 CALM      30.17F
FORT MORGAN    SUNNY     82  45  26 CALM      30.24S
$$

COZ086-089-092>099-012100-
...SOUTHEAST COLORADO...

CITY           SKY/WX    TMP DP  RH WIND       PRES   REMARKS
PUEBLO         MOSUNNY   79  55  43 VRB6      30.23F
LA JUNTA       MOSUNNY   81  50  33 SE5       30.20F
LAMAR          SUNNY     83  51  33 E7        30.16F
SPRINGFIELD    NOT AVBL
$$



USA.gov is the U.S. government's official web portal to all federal, state and local government web resources and services.